This is the latest recevied weather packets stored in our database for station/object KGRR-WX. If no packets are shown the sender has not sent any weather packets the latest 10 day(s).
| Time | Temp. | Humidity | Pressure | Rain* | Wind** | Luminosity | Snow |
|---|---|---|---|---|---|---|---|
| 1777657505 | 6.11° C | 63% | 988.6 hPa | 0 mm | - | - | - |
| 1777656614 | 6.11° C | 64% | 988 hPa | 0 mm | - | - | - |
| 1777655705 | 6.11° C | 64% | 988 hPa | 0 mm | - | - | - |
| 1777654824 | 6.67° C | 64% | 988 hPa | 0 mm | - | - | - |
| 1777653904 | 6.67° C | 56% | 986.9 hPa | 0 mm | - | - | - |
| 1777653021 | 7.22° C | 53% | 987 hPa | 0 mm | - | - | - |
| 1777652105 | 7.22° C | 53% | 987 hPa | 0 mm | - | - | - |
| 1777651226 | 6.67° C | 53% | 987 hPa | 0 mm | - | - | - |
| 1777650305 | 6.67° C | 55% | 987.1 hPa | 0 mm | - | - | - |
| 1777649414 | 6.67° C | 50% | 987.6 hPa | 0 mm | - | - | - |
| 1777648505 | 6.67° C | 50% | 987.6 hPa | 0 mm | - | - | - |
| 1777647624 | 6.67° C | 50% | 987.6 hPa | 0 mm | - | - | - |
| 1777646705 | 6.11° C | 56% | 987.1 hPa | 0 mm | - | - | - |
| 1777645821 | 6.11° C | 53% | 987.5 hPa | 0 mm | - | - | - |
| 1777644905 | 6.11° C | 53% | 987.5 hPa | 0 mm | - | - | - |
| 1777644025 | 6.11° C | 53% | 987.5 hPa | 0 mm | - | - | - |
| 1777643105 | 5.56° C | 60% | 986.9 hPa | 0 mm | - | - | - |
| 1777642214 | 5.56° C | 60% | 986.9 hPa | 0 mm | - | - | - |
| 1777641305 | 5° C | 60% | 986.9 hPa | 0 mm | - | - | - |
| 1777640424 | 4.44° C | 60% | 986.9 hPa | 0 mm | - | - | - |
| 1777639505 | 3.89° C | 66% | 986.5 hPa | 0 mm | - | - | - |
| 1777638620 | 3.89° C | 70% | 986.3 hPa | 0 mm | - | - | - |
| 1777637705 | 3.33° C | 70% | 986.3 hPa | 0 mm | - | - | - |
| 1777636825 | 3.33° C | 70% | 986.3 hPa | 0 mm | - | - | - |
| 1777635905 | 2.78° C | 70% | 985.7 hPa | 0 mm | - | - | - |
* Rain latest hour (hover to see other rain measurements)
** Current wind speed in m/s (hover to see current wind gust speed)